TEST Weather Reports


time (UTC)temp
C
wind
direction
speed
KPH
gust
KPH
rain 1hr
cm
rain 24hr
cm
rain mn
cm
humidity
%
barometer
mb
20260510130831 7 335 0.0 3.2 0.00 0.10 0.03 90 1030.9
20260510130328 7 335 0.0 3.2 0.00 0.10 0.03 90 1030.9
20260510125812 7 335 0.0 0.0 0.00 0.10 0.03 91 1031.0
20260510125317 7 333 0.0 0.0 0.00 0.10 0.03 91 1031.1
20260510124821 6 333 0.0 0.0 0.00 0.10 0.03 90 1031.1
20260510124325 6 333 0.0 0.0 0.00 0.10 0.03 89 1031.1
20260510123830 7 333 0.0 0.0 0.00 0.10 0.03 89 1031.2
20260510123349 7 333 0.0 4.8 0.00 0.10 0.03 88 1031.1
20260510122832 7 333 1.6 4.8 0.00 0.10 0.03 88 1031.2
20260510122315 8 352 0.0 4.8 0.00 0.10 0.03 88 1031.1
20260510121820 8 140 0.0 3.2 0.00 0.10 0.03 90 1031.1
20260510121322 8 138 1.6 3.2 0.00 0.10 0.03 90 1031.1
20260510120848 8 157 0.0 3.2 0.00 0.10 0.03 90 1031.1
20260510120321 8 152 0.0 6.4 0.00 0.10 0.03 91 1031.2
20260510115823 8 149 3.2 6.4 0.00 0.10 0.03 90 1031.1
20260510115326 8 153 1.6 4.8 0.00 0.10 0.03 90 1031.1
20260510114852 8 171 0.0 4.8 0.00 0.10 0.03 91 1031.0
20260510114314 8 172 1.6 4.8 0.00 0.10 0.03 91 1031.1
20260510113811 8 165 0.0 3.2 0.00 0.10 0.03 91 1031.1
20260510113336 8 170 0.0 0.0 0.00 0.10 0.03 90 1031.0
20260510112824 8 211 0.0 0.0 0.00 0.10 0.03 90 1030.9
20260510112320 8 211 0.0 0.0 0.00 0.10 0.03 91 1030.8
20260510111824 8 212 0.0 0.0 0.00 0.10 0.03 91 1030.8
20260510111329 8 213 0.0 0.0 0.00 0.10 0.03 91 1030.8
20260510110833 7 213 0.0 0.0 0.00 0.10 0.03 90 1030.7
20260510110337 7 213 0.0 0.0 0.00 0.10 0.03 88 1030.7
20260510105835 7 213 0.0 0.0 0.00 0.10 0.03 88 1030.7
20260510105313 7 213 0.0 0.0 0.00 0.10 0.03 88 1030.8
20260510104813 8 213 0.0 0.0 0.00 0.10 0.03 88 1030.7
20260510104317 8 213 0.0 0.0 0.00 0.10 0.03 88 1030.8
20260510103821 8 213 0.0 0.0 0.00 0.10 0.03 87 1030.7
20260510103325 8 213 0.0 0.0 0.00 0.10 0.03 87 1030.7
20260510102828 8 211 0.0 0.0 0.00 0.10 0.03 87 1030.8
20260510102331 8 211 0.0 0.0 0.00 0.10 0.03 87 1030.8
20260510101828 8 211 0.0 0.0 0.00 0.10 0.03 87 1030.8
20260510101330 8 211 0.0 0.0 0.00 0.10 0.03 86 1030.9
20260510100813 8 211 0.0 0.0 0.00 0.10 0.03 86 1030.8
20260510100317 8 211 0.0 0.0 0.00 0.10 0.03 85 1030.8
20260510095819 8 211 0.0 0.0 0.00 0.10 0.03 85 1030.6
20260510095322 8 211 0.0 0.0 0.00 0.10 0.03 84 1030.7
20260510094841 9 211 0.0 0.0 0.00 0.10 0.03 84 1030.7
20260510094323 9 211 0.0 0.0 0.00 0.10 0.03 83 1030.6
20260510093823 10 209 0.0 0.0 0.00 0.10 0.03 85 1030.6
20260510093326 10 202 0.0 0.0 0.00 0.10 0.03 86 1030.5
20260510092829 10 202 0.0 0.0 0.00 0.10 0.03 84 1030.6
20260510092335 10 202 0.0 0.0 0.00 0.10 0.03 83 1030.4
20260510091833 10 202 0.0 0.0 0.00 0.10 0.03 83 1030.4
20260510091314 10 202 0.0 0.0 0.00 0.10 0.03 83 1030.3
20260510090840 10 202 0.0 0.0 0.00 0.10 0.03 83 1030.4
20260510090344 10 202 0.0 0.0 0.00 0.10 0.03 83 1030.3
20260510085824 11 202 0.0 0.0 0.00 0.10 0.03 82 1030.4
20260510085329 11 202 0.0 0.0 0.00 0.10 0.03 81 1030.2
20260510084826 11 202 0.0 0.0 0.00 0.10 0.03 80 1030.2
20260510084337 11 202 0.0 0.0 0.00 0.10 0.03 79 1030.1
20260510083814 12 202 0.0 0.0 0.00 0.10 0.03 79 1029.9
20260510083319 12 202 0.0 0.0 0.00 0.10 0.03 79 1029.8
20260510082822 12 202 0.0 0.0 0.00 0.10 0.03 79 1029.7
20260510082316 12 202 0.0 0.0 0.00 0.10 0.03 78 1029.7
20260510081820 13 202 0.0 0.0 0.00 0.10 0.03 77 1029.7
20260510081324 13 202 0.0 0.0 0.00 0.10 0.03 75 1029.6
20260510080829 13 202 0.0 0.0 0.00 0.10 0.03 73 1029.5
20260510080334 14 202 0.0 0.0 0.00 0.10 0.03 72 1029.5
20260510075818 15 202 0.0 0.0 0.00 0.10 0.03 72 1029.5
20260510075316 15 202 0.0 1.6 0.00 0.10 0.03 72 1029.4
20260510074821 15 202 0.0 0.0 0.00 0.10 0.03 70 1029.3
20260510074323 16 202 0.0 0.0 0.00 0.10 0.03 70 1029.2
20260510073849 16 202 0.0 0.0 0.00 0.10 0.03 70 1029.2
20260510073332 16 233 0.0 0.0 0.00 0.10 0.03 70 1029.1
20260510072814 17 233 0.0 0.0 0.00 0.10 0.03 67 1029.1
20260510072312 17 233 0.0 3.2 0.00 0.10 0.03 67 1029.1
20260510071816 17 233 0.0 3.2 0.00 0.10 0.03 67 1029.1
20260510071318 17 163 0.0 0.0 0.00 0.10 0.03 66 1029.1
20260510070819 18 163 0.0 0.0 0.00 0.10 0.03 65 1029.0
20260510070323 18 163 0.0 0.0 0.00 0.10 0.03 65 1029.0
20260510065827 18 163 0.0 0.0 0.00 0.10 0.03 65 1028.9
20260510065331 19 163 0.0 0.0 0.00 0.10 0.03 64 1028.7
20260510064850 19 163 0.0 3.2 0.00 0.10 0.03 64 1028.7
20260510064359 19 163 0.0 4.8 0.00 0.10 0.03 62 1028.8
20260510063813 20 163 1.6 6.4 0.00 0.10 0.03 61 1028.7
20260510063318 20 163 3.2 6.4 0.00 0.10 0.03 60 1028.5
20260510062822 20 165 3.2 4.8 0.00 0.10 0.03 59 1028.6
20260510062327 20 174 3.2 6.4 0.00 0.10 0.03 60 1028.4
20260510061846 20 172 3.2 6.4 0.00 0.10 0.03 58 1028.5
20260510061328 20 169 3.2 6.4 0.00 0.10 0.03 58 1028.3
20260510060833 20 165 3.2 8.0 0.00 0.10 0.03 58 1028.3
20260510060317 20 158 3.2 8.0 0.00 0.10 0.03 57 1028.3
20260510055815 21 180 4.8 8.0 0.00 0.10 0.03 56 1028.3
20260510055310 21 165 4.8 9.7 0.00 0.10 0.03 56 1028.2
20260510054815 21 165 6.4 9.7 0.00 0.10 0.03 57 1028.3
20260510054319 21 150 4.8 8.0 0.00 0.10 0.03 57 1028.2
20260510053824 21 167 4.8 9.7 0.00 0.10 0.03 57 1028.2
20260510053349 21 180 8.0 9.7 0.00 0.10 0.03 56 1028.2
20260510052829 21 185 4.8 9.7 0.00 0.10 0.03 56 1028.2
20260510052355 21 196 4.8 12.9 0.00 0.10 0.03 56 1028.1
20260510051811 21 180 8.0 12.9 0.00 0.10 0.03 56 1028.1
20260510051314 21 157 3.2 12.9 0.00 0.10 0.03 56 1028.0
20260510050818 21 180 6.4 9.7 0.00 0.10 0.03 56 1028.1
20260510050321 21 139 4.8 12.9 0.00 0.10 0.03 54 1028.0
20260510045824 21 143 4.8 12.9 0.00 0.10 0.03 56 1028.0
20260510045327 21 173 6.4 12.9 0.00 0.10 0.03 55 1028.0
20260510044832 21 152 3.2 8.0 0.00 0.10 0.03 57 1028.0
20260510044332 20 180 1.6 9.7 0.00 0.10 0.03 57 1028.1
20260510043829 20 157 6.4 9.7 0.00 0.10 0.03 55 1028.1
20260510043314 21 180 6.4 9.7 0.00 0.10 0.03 55 1028.0
20260510042839 21 216 6.4 9.7 0.00 0.10 0.03 56 1028.1
20260510042322 21 204 4.8 8.0 0.00 0.10 0.03 56 1028.1
20260510041838 20 165 3.2 8.0 0.00 0.10 0.03 57 1028.0
20260510041324 20 152 0.0 6.4 0.00 0.10 0.03 58 1028.0
20260510040819 20 165 1.6 9.7 0.00 0.10 0.03 58 1028.1
20260510040321 20 148 3.2 12.9 0.00 0.10 0.03 58 1028.0
20260510035825 20 149 3.2 12.9 0.00 0.10 0.03 58 1028.1
20260510035328 20 194 3.2 16.1 0.00 0.10 0.03 58 1028.1
20260510034830 20 217 8.0 14.5 0.00 0.10 0.03 58 1028.1
20260510034333 20 211 3.2 9.7 0.00 0.10 0.03 59 1028.2
20260510033814 20 180 4.8 11.3 0.00 0.10 0.03 58 1028.3
20260510033311 20 217 4.8 12.9 0.00 0.10 0.03 59 1028.3
20260510032835 20 91 3.2 14.5 0.00 0.10 0.03 59 1028.4
20260510032337 20 190 8.0 14.5 0.00 0.10 0.03 62 1028.4
20260510031813 20 218 1.6 9.7 0.00 0.10 0.03 63 1028.5
20260510031316 20 217 1.6 9.7 0.00 0.10 0.03 62 1028.6
20260510030817 20 298 3.2 6.4 0.00 0.10 0.03 63 1028.7
20260510030320 20 135 4.8 9.7 0.00 0.10 0.03 63 1028.7
20260510025821 20 134 3.2 9.7 0.00 0.10 0.03 64 1028.8
20260510025318 20 289 3.2 8.0 0.00 0.10 0.03 63 1028.9
20260510024819 19 245 0.0 9.7 0.00 0.10 0.03 65 1028.9
20260510024320 19 230 0.0 9.7 0.00 0.10 0.03 65 1029.0
20260510023845 19 135 6.4 9.7 0.00 0.10 0.03 65 1028.9
20260510023324 19 173 3.2 8.0 0.00 0.10 0.03 66 1029.0
20260510022823 19 144 3.2 8.0 0.00 0.10 0.03 66 1029.0
20260510022321 18 144 1.6 6.4 0.00 0.10 0.03 66 1029.2
20260510021815 18 170 3.2 6.4 0.00 0.10 0.03 66 1029.2
20260510021322 18 156 3.2 9.7 0.00 0.10 0.03 65 1029.5
20260510020817 18 167 6.4 9.7 0.00 0.10 0.03 67 1029.5
20260510020320 18 162 1.6 9.7 0.00 0.10 0.03 65 1029.6
20260510015837 18 279 3.2 4.8 0.00 0.10 0.03 65 1029.6
20260510015317 18 211 3.2 6.4 0.00 0.10 0.03 66 1029.7
20260510014838 18 170 3.2 6.4 0.00 0.10 0.03 67 1029.7
20260510014319 18 173 4.8 6.4 0.00 0.10 0.03 68 1029.9
20260510013822 18 173 3.2 6.4 0.00 0.10 0.03 69 1030.0
20260510013322 17 211 0.0 8.0 0.00 0.10 0.03 69 1030.1
20260510012823 17 144 4.8 8.0 0.00 0.10 0.03 69 1030.1
20260510012316 17 163 1.6 6.4 0.00 0.10 0.03 69 1030.2
20260510011814 17 213 3.2 6.4 0.00 0.10 0.03 71 1030.2
20260510011313 17 170 0.0 4.8 0.00 0.10 0.03 70 1030.2
20260510010835 17 151 1.6 6.4 0.00 0.10 0.03 72 1030.2
20260510010336 16 137 1.6 8.0 0.00 0.10 0.03 72 1030.2
20260510005814 16 190 4.8 8.0 0.00 0.10 0.03 74 1030.2
20260510005315 16 117 0.0 4.8 0.00 0.10 0.03 75 1030.2
20260510004815 15 138 0.0 6.4 0.00 0.10 0.03 79 1030.3
20260510004314 15 223 0.0 6.4 0.00 0.10 0.03 80 1030.4
20260510003815 15 171 1.6 4.8 0.00 0.10 0.03 82 1030.3
20260510003337 14 164 1.6 6.4 0.00 0.10 0.03 83 1030.3
20260510002832 13 180 1.6 4.8 0.00 0.10 0.03 86 1030.3
20260510002334 13 190 3.2 4.8 0.00 0.10 0.03 86 1030.3
20260510001824 13 169 0.0 4.8 0.00 0.10 0.03 89 1030.3
20260510001322 13 165 0.0 4.8 0.00 0.10 0.03 92 1030.3
20260510000822 12 196 1.6 4.8 0.00 0.10 0.03 92 1030.2
20260510000326 12 198 3.2 4.8 0.00 0.10 0.03 93 1030.3
20260509235824 12 251 0.0 1.6 0.00 0.10 0.03 94 1030.3
20260509235324 12 234 0.0 1.6 0.00 0.10 0.03 94 1030.3
20260509234826 12 190 0.0 1.6 0.00 0.10 0.03 95 1030.4
20260509234326 12 180 0.0 1.6 0.00 0.10 0.03 95 1030.4
20260509233821 12 180 0.0 0.0 0.00 0.10 0.03 95 1030.3
20260509233323 12 180 0.0 0.0 0.00 0.10 0.03 96 1030.3
20260509232856 11 180 0.0 0.0 0.00 0.10 0.03 96 1030.2
20260509232347 11 180 0.0 0.0 0.00 0.10 0.03 96 1030.1
20260509231828 11 180 0.0 0.0 0.00 0.10 0.03 96 1030.1
20260509231324 10 180 0.0 3.2 0.00 0.10 0.03 95 1030.1
20260509230827 10 180 0.0 4.8 0.00 0.10 0.03 95 1030.1
20260509230350 10 173 0.0 4.8 0.00 0.10 0.03 95 1030.0
20260509225830 10 180 0.0 3.2 0.00 0.10 0.03 96 1030.0
20260509225334 11 202 0.0 3.2 0.00 0.10 0.03 97 1029.9
20260509224828 10 203 0.0 0.0 0.00 0.10 0.03 97 1029.8
20260509224358 10 203 0.0 0.0 0.00 0.10 0.03 97 1029.9
20260509223811 9 203 0.0 0.0 0.00 0.10 0.03 97 1029.9
20260509223312 8 203 0.0 1.6 0.00 0.10 0.03 96 1029.9
20260509222830 8 203 0.0 1.6 0.00 0.10 0.03 96 1029.9
20260509222310 7 203 0.0 1.6 0.00 0.10 0.03 96 1029.8
20260509221831 7 241 0.0 1.6 0.00 0.10 0.03 96 1029.7
20260509221311 7 290 0.0 1.6 0.00 0.10 0.03 96 1029.6
20260509220827 6 325 0.0 1.6 0.00 0.10 0.03 96 1029.6
20260509220319 6 326 0.0 1.6 0.00 0.10 0.03 96 1029.4
20260509215824 6 340 0.0 1.6 0.00 0.10 0.03 96 1029.4
20260509215338 5 340 0.0 1.6 0.00 0.10 0.03 96 1029.4
20260509214818 5 337 0.0 1.6 0.00 0.10 0.03 95 1029.3
20260509214339 4 335 0.0 1.6 0.00 0.10 0.03 95 1029.3
20260509213821 3 346 0.0 1.6 0.00 0.10 0.03 94 1029.2
20260509213346 3 8 0.0 1.6 0.00 0.10 0.03 94 1029.2
20260509212847 3 8 0.0 1.6 0.00 0.10 0.03 94 1029.1
20260509212330 3 8 0.0 1.6 0.00 0.10 0.03 94 1029.2
20260509211849 3 8 0.0 0.0 0.00 0.10 0.03 93 1029.1
20260509211312 3 8 0.0 0.0 0.00 0.10 0.03 95 1029.0
20260509210837 3 9 0.0 0.0 0.00 0.10 0.03 94 1029.0
20260509210322 3 9 0.0 0.0 0.00 0.10 0.03 94 1029.0
20260509205819 3 9 0.0 0.0 0.00 0.10 0.03 94 1028.9
20260509205335 3 13 0.0 1.6 0.00 0.10 0.03 93 1028.8
20260509204816 3 13 0.0 1.6 0.00 0.10 0.03 92 1028.6
20260509204320 3 13 0.0 1.6 0.00 0.10 0.03 94 1028.7
20260509203825 3 194 0.0 0.0 0.00 0.10 0.03 94 1028.6
20260509203333 3 194 0.0 0.0 0.00 0.10 0.03 94 1028.6
20260509202814 3 194 0.0 0.0 0.00 0.10 0.03 94 1028.6
20260509202318 3 194 0.0 0.0 0.00 0.10 0.03 94 1028.5
20260509201812 3 194 0.0 0.0 0.00 0.10 0.03 93 1028.4
20260509201315 3 194 0.0 0.0 0.00 0.10 0.03 93 1028.4
20260509200818 4 194 0.0 0.0 0.00 0.10 0.03 93 1028.5
20260509200322 4 194 0.0 0.0 0.00 0.10 0.03 93 1028.4
20260509195826 4 194 0.0 0.0 0.00 0.10 0.03 93 1028.3
20260509195330 4 194 0.0 0.0 0.00 0.10 0.03 93 1028.2
20260509194822 4 194 0.0 4.8 0.00 0.10 0.03 94 1028.3
20260509194333 4 194 0.0 6.4 0.00 0.10 0.03 94 1028.2
20260509193827 4 180 3.2 6.4 0.00 0.10 0.03 94 1028.1
20260509193328 4 190 0.0 1.6 0.00 0.10 0.03 95 1028.0
20260509192825 4 202 0.0 1.6 0.10 0.10 0.03 94 1028.0
20260509192330 4 296 0.0 0.0 0.10 0.10 0.03 94 1027.9
20260509191832 4 296 0.0 0.0 0.10 0.10 0.03 93 1027.9
20260509191315 4 296 0.0 0.0 0.10 0.10 0.03 93 1027.8
20260509190812 4 296 0.0 0.0 0.10 0.10 0.03 93 1027.8
20260509190312 4 296 0.0 0.0 0.10 0.10 0.03 93 1027.8
20260509185834 4 296 0.0 0.0 0.10 0.10 0.03 93 1027.6
20260509185317 4 296 0.0 0.0 0.10 0.10 0.03 93 1027.5
20260509184822 4 296 0.0 1.6 0.10 0.10 0.03 94 1027.6
20260509184327 4 296 0.0 1.6 0.10 0.10 0.03 94 1027.5
20260509183828 4 298 0.0 0.0 0.10 0.10 0.03 94 1027.5
20260509183325 4 298 0.0 0.0 0.10 0.10 0.03 94 1027.4
20260509182836 4 298 0.0 0.0 0.00 0.00 0.00 94 1027.3
20260509182334 3 298 0.0 0.0 0.00 0.00 0.00 94 1027.3
20260509181840 3 298 0.0 0.0 0.00 0.00 0.00 93 1027.4
20260509181324 3 298 0.0 0.0 0.00 0.00 0.00 93 1027.3
20260509180829 3 298 0.0 0.0 0.00 0.00 0.00 94 1027.3
20260509180326 3 298 0.0 0.0 0.00 0.00 0.00 94 1027.2
20260509175855 3 298 0.0 0.0 0.00 0.00 0.00 93 1027.2
20260509175329 3 298 0.0 0.0 0.00 0.00 0.00 93 1027.2
20260509174834 3 298 0.0 0.0 0.00 0.00 0.00 93 1027.2
20260509174317 3 298 0.0 0.0 0.00 0.00 0.00 93 1027.2
20260509173820 3 298 0.0 0.0 0.00 0.00 0.00 93 1027.3
20260509173317 3 298 0.0 0.0 0.00 0.00 0.00 93 1027.2
20260509172826 3 298 0.0 0.0 0.00 0.00 0.00 93 1027.2
20260509172319 3 298 0.0 0.0 0.00 0.00 0.00 93 1027.1
20260509171823 3 298 0.0 0.0 0.00 0.00 0.00 94 1027.2
20260509171327 3 298 0.0 0.0 0.00 0.00 0.00 93 1027.2
20260509170812 3 298 0.0 0.0 0.00 0.00 0.00 93 1027.2
20260509170355 3 298 0.0 0.0 0.00 0.00 0.00 93 1027.3
20260509165839 3 300 0.0 0.0 0.00 0.00 0.00 93 1027.3
20260509165315 3 300 0.0 0.0 0.00 0.00 0.00 93 1027.2
20260509164818 3 300 0.0 0.0 0.00 0.00 0.00 93 1027.3
20260509164321 3 300 0.0 0.0 0.00 0.00 0.00 93 1027.4
20260509163823 3 300 0.0 0.0 0.00 0.00 0.00 93 1027.4
20260509163348 3 300 0.0 0.0 0.00 0.00 0.00 92 1027.5
20260509162828 3 300 0.0 1.6 0.00 0.00 0.00 91 1027.5
20260509162351 3 300 0.0 1.6 0.00 0.00 0.00 91 1027.6
20260509161834 4 296 0.0 0.0 0.00 0.00 0.00 93 1027.6
20260509161331 3 296 0.0 0.0 0.00 0.00 0.00 93 1027.6
20260509160830 3 296 0.0 0.0 0.00 0.00 0.00 93 1027.5
20260509160315 3 298 0.0 0.0 0.00 0.00 0.00 93 1027.4
20260509155816 3 298 0.0 0.0 0.00 0.00 0.00 92 1027.5
20260509155321 3 298 0.0 0.0 0.00 0.00 0.00 92 1027.5
20260509154819 3 299 0.0 0.0 0.00 0.00 0.00 92 1027.4
20260509154331 4 299 0.0 0.0 0.00 0.00 0.00 93 1027.4
20260509153851 4 296 0.0 0.0 0.00 0.00 0.00 93 1027.5
20260509153314 3 296 0.0 0.0 0.00 0.00 0.00 93 1027.4
20260509152816 3 296 0.0 0.0 0.00 0.00 0.00 92 1027.4
20260509152321 3 296 0.0 0.0 0.00 0.00 0.00 91 1027.5
20260509151819 4 296 0.0 0.0 0.00 0.00 0.00 91 1027.4
20260509151329 4 296 0.0 0.0 0.00 0.00 0.00 94 1027.5
20260509150827 4 299 0.0 1.6 0.00 0.00 0.00 94 1027.5
20260509150331 3 305 0.0 1.6 0.00 0.00 0.00 93 1027.5
20260509145813 3 305 0.0 0.0 0.00 0.00 0.00 92 1027.5
20260509145311 3 306 0.0 0.0 0.00 0.00 0.00 91 1027.6
20260509144850 3 306 0.0 0.0 0.00 0.00 0.00 91 1027.6
20260509144328 4 306 0.0 0.0 0.00 0.00 0.00 91 1027.7
20260509143832 4 306 0.0 0.0 0.00 0.00 0.00 92 1027.6
20260509143334 4 305 0.0 0.0 0.00 0.00 0.00 93 1027.6
20260509142819 4 331 0.0 0.0 0.00 0.00 0.00 91 1027.6
20260509142334 4 331 0.0 0.0 0.00 0.00 0.00 92 1027.6
20260509141816 4 331 0.0 0.0 0.00 0.00 0.00 91 1027.6
20260509141316 4 331 0.0 0.0 0.00 0.00 0.00 91 1027.6
20260509140820 4 331 0.0 0.0 0.00 0.00 0.00 92 1027.6
20260509140344 4 331 0.0 0.0 0.00 0.00 0.00 92 1027.6
20260509135843 4 331 0.0 0.0 0.00 0.00 0.00 92 1027.7
20260509135319 4 331 0.0 0.0 0.00 0.00 0.00 92 1027.7
20260509134820 4 331 0.0 0.0 0.00 0.00 0.00 92 1027.6
20260509134323 4 331 0.0 0.0 0.00 0.00 0.00 92 1027.6
20260509133828 4 331 0.0 1.6 0.00 0.00 0.00 92 1027.8
20260509133332 4 331 0.0 1.6 0.00 0.00 0.00 91 1027.7
20260509132813 4 331 0.0 0.0 0.00 0.00 0.00 91 1027.6
20260509132312 5 331 0.0 0.0 0.00 0.00 0.00 91 1027.7
20260509131816 5 331 0.0 0.0 0.00 0.00 0.00 91 1027.7
20260509131340 5 331 0.0 0.0 0.00 0.00 0.00 91 1027.8